Location: Plainartige
(45.6866°N, 1.7993°E)
Time: 17:18:48
(UTC+00:00)

Tiros 1 - Pass Details

Date: 05 June 2022
Orbit: 629 x 663 km, 48.4° (Epoch: 05 July)

Event Time Altitude Azimuth Distance (km) Brightness Sun altitude
Rises 01:42:42 0° 289° (WNW) 2,919 10.4 -17.2°
Reaches altitude 10° 01:45:02 10° 288° (WNW) 2,012 9.6 -17.1°
Maximum altitude 01:49:39 74° 203° (SSW) 662 7.0 -16.7°
Drops below altitude 10° 01:54:17 10° 120° (ESE) 2,022 9.7 -16.3°
Sets 01:56:37 0° 118° (ESE) 2,934 10.6 -16.1°
